CZ-6A DEB, 60651

Orbit data source: Space-Track

CZ-6A DEB, 60651 is space debris in LEO originally from a launch on Tue, 06 Aug 2024 UTC launched from the Taiyaun Space Center, China (TSC). Debris objects in space refer to the collection of defunct objects orbiting the Earth. Examples of debris include non-operational satellites, rocket bodies, and fragments generated from explosions, collisions, or faulty payload assembly.

Loading next visibility...
Identifier
60651, 2024-140BC
Orbit
LEO
Country
Flag of CNCN / PRC
Related business
Manufacturer
SAST
Mission
Spacecraft
Bus & Motor
Unknown
Mass
Unknown
Launch date (UTC)
2024-08-06 (2 years ago)
Launch vehicle
Unknown
Launch site
Taiyaun Space Center, China (TSC)
Object type
Payload
Rocket body
Debris
Shape & HBR
Unknown shape, 0.8 m
Radar Cross Section
Large (>1 m²)

Expand to show TLE details & history
Last TLE update: 13 hours ago

TLE from 13 hours ago
0 CZ-6A DEB
1 60651U 24140BC  26171.32253646  .00000224  00000-0  57961-4 0  9997
2 60651  88.8877 261.5929 0074858 286.9603  72.3406 14.44771645 98277
Epoch: 2026-06-20T07:44Z
TLE epoch observation values (Epoch: 2026-06-20T07:44:27.150Z)
Latitude
0.00006°
Longitude
-123.05904°
Altitude
730.054 km
Speed
7.498 km/s
True Right ascension
17h 26m 22s
True Declination
0° 00' 00"
Sunlit
Object was in full shadow at epoch
Visualization orbit readout
Latitude
Unknown
Longitude
Unknown
Altitude
Unknown
Speed
Unknown
Apparent Right ascension
Unknown
Apparent Declination
Unknown
Sunlit
N/A
Visualization observer readout
Local Sidereal Time
07:23:42
Azimuth
Unknown
Elevation
Unknown
Doppler factor
Unknown
Orbital elements
Apogee altitude
792.975 km
Perigee altitude
686.41 km
Semi-major axis
7,117.83 km
Eccentricity
0.00749
Inclination
88.8877°
RAAN
261.5929°
Arg. of periapsis
286.9603°
True anomaly
73.16029°
Mean anomaly
72.3406°
Eccentric anomaly
72.75021°
Mean motion
3.61428 °/min
Orbital period
99.6 mins
BSTAR
0.000057961
Loading maneuver chart data...
Computing Atmospheric mass density...
Loading historical data...
Loading historical data...
Loading historical data...
Loading historical data...
Loading historical data...
Loading historical data...
Loading historical data...

Documentation

Showing up to 5 results
|